Location: Kapla
(46.2483°N, 15.0094°E)
Time: 20:58:08
(UTC+00:00)

USA 307 - Pass Details

Date: 03 March 2021
Orbit: 567 x 577 km, 54.0° (Epoch: 22 April)

Event Time Altitude Azimuth Distance (km) Brightness Sun altitude
Rises 18:16:51 0° 286° (WNW) 2,785 8.2 -15.9°
Reaches altitude 10° 18:19:22 10° 298° (WNW) 1,885 6.7 -16.4°
Maximum altitude 18:23:06 28° 359° (N) 1,082 4.4 -17.0°
Enters shadow 18:25:13 19° 43° (NE) 1,388 4.5 -17.4°
